Simultaneous Nadir Overpasses (SNOs) Predictions

Prediction of SNOs over PacNW region [( 10.00, 139.50) to ( 22.70, 165.60)] between AQUA and NPP Satellites:

Table of predicted SNOs over PacNW region for the next 30.0 days since TLE Epoch: 9/5/2014
Index Date (AQUA) Time (AQUA) AQUA Lat,Lon Date (NPP) Time (NPP) NPP Lat,Lon Distance(km) Time Diff (sec)
1 09/08/2014 03:28:31 10.11, 150.30 09/08/2014 03:31:59 9.54, 148.84 172.44 208
2 09/10/2014 15:32:10 10.01, 152.31 09/10/2014 15:29:37 10.00, 152.47 18.44 153
3 09/16/2014 02:39:04 10.11, 162.66 09/16/2014 02:41:34 9.87, 161.44 137.29 150
4 09/18/2014 16:19:08 18.88, 141.92 09/18/2014 16:18:05 18.88, 141.86 6.70 63
5 09/24/2014 03:28:25 10.09, 150.32 09/24/2014 03:31:53 7.58, 149.26 303.70 208
6 09/26/2014 15:32:02 10.02, 152.33 09/26/2014 15:30:04 10.00, 152.45 12.46 118
7 10/02/2014 02:38:49 10.07, 162.72 10/02/2014 02:41:58 9.78, 161.43 145.25 189




NCC Satellite Simultaneous Nadir Overpasses (SNOs) Prediction Service
